Date,TemperatureHighF,TemperatureAvgF,TemperatureLowF,DewpointHighF,DewpointAvgF,DewpointLowF,HumidityHigh,HumidityAvg,HumidityLow,PressureMaxIn,PressureMinIn,WindSpeedMaxMPH,WindSpeedAvgMPH,GustSpeedMaxMPH,PrecipitationSumIn
2012-1-15,63.6,62.2,61.1,54.3,47.5,41.9,76,59,46,30.45,30.38,13,6,16,0.00
2012-1-16,67.8,65.8,62.0,60.8,56.0,52.3,80,71,66,30.48,30.35,12,5,16,0.00
2012-1-17,72.0,67.0,60.3,66.1,62.6,56.9,94,86,76,30.35,30.19,14,2,17,0.00
2012-1-18,71.2,65.5,56.6,65.6,60.7,54.6,94,85,70,30.20,29.94,9,1,14,0.00
2012-1-19,69.1,63.2,55.3,61.8,55.2,49.3,93,77,50,30.19,30.03,11,3,13,0.00
2012-1-20,73.3,64.9,55.0,64.9,59.2,50.8,90,82,70,30.24,30.15,8,2,9,0.00
2012-1-21,75.8,66.9,58.9,64.9,61.9,57.1,95,85,63,30.20,30.05,10,2,13,0.00
2012-1-22,72.4,65.4,55.4,67.5,62.2,53.6,96,90,78,30.17,30.09,6,2,8,0.00
2012-1-23,74.3,69.6,66.3,69.1,66.9,64.8,96,92,84,30.16,30.09,9,2,12,0.01
2012-1-24,75.7,69.8,64.2,70.2,67.5,63.3,98,93,81,30.21,30.12,3,1,9,0.01
2012-1-25,75.5,71.2,68.7,69.9,68.2,66.9,96,91,82,30.21,30.12,11,2,13,0.01
2012-1-26,75.0,71.9,69.6,70.1,68.4,67.1,95,89,84,30.14,29.99,15,5,18,0.00
2012-1-27,77.6,72.0,68.2,70.2,67.3,65.0,95,86,69,30.08,29.93,13,3,18,0.00
2012-1-28,72.8,67.2,61.1,64.9,59.6,57.1,90,77,63,30.19,30.07,10,3,12,0.00
2012-1-29,69.8,66.9,65.1,61.4,58.6,52.7,85,75,62,30.30,30.18,13,6,17,0.00
2012-1-30,69.9,67.4,64.8,61.4,58.8,56.0,87,74,65,30.37,30.26,16,7,21,0.00
2012-1-31,71.1,69.0,67.1,62.5,59.8,57.0,79,73,67,30.38,30.27,11,6,14,0.00
2012-2-1,75.2,70.8,67.9,67.3,65.2,61.6,93,83,73,30.28,30.16,8,2,10,0.00
2012-2-2,74.3,69.5,63.7,70.8,67.4,62.7,97,93,87,30.19,30.10,6,2,9,0.00
2012-2-3,72.3,71.0,69.7,68.2,66.4,64.7,94,86,79,30.25,30.15,11,5,13,0.00
2012-2-4,75.7,72.0,70.7,69.2,67.1,65.3,92,85,77,30.21,30.09,11,5,15,0.00
2012-2-5,71.8,70.8,69.3,70.2,69.1,67.4,97,95,92,30.11,30.00,10,2,15,0.25
2012-2-6,73.6,70.0,67.5,71.5,68.3,65.4,97,95,90,30.10,30.00,15,2,21,0.19
2012-2-7,72.2,70.1,68.0,70.7,68.7,66.8,98,96,92,30.08,29.99,12,3,19,0.16
2012-2-8,73.4,68.5,67.0,67.7,64.5,58.2,97,88,71,30.09,30.01,14,6,17,0.01
2012-2-9,72.0,70.0,68.1,66.2,63.5,60.0,87,80,75,30.16,30.05,11,5,15,0.00
2012-2-10,74.7,71.3,67.9,71.0,68.6,65.9,96,92,86,30.12,29.89,12,4,20,0.02
2012-2-11,67.8,62.8,51.7,66.2,55.2,45.3,98,78,55,30.13,29.89,16,4,20,0.08
2012-2-12,52.9,47.8,38.4,45.3,37.1,26.5,80,67,45,30.35,30.12,20,6,25,0.00
2012-2-13,64.8,54.7,42.7,54.9,46.5,37.5,84,74,62,30.30,30.15,10,4,15,0.00
2012-2-14,73.6,65.1,56.3,63.6,58.0,50.7,88,78,58,30.17,30.07,13,2,14,0.00
2012-2-15,78.5,68.6,61.5,68.3,63.8,58.5,93,85,61,30.24,30.14,10,2,10,0.00
2012-2-16,78.6,70.5,65.9,69.3,66.5,63.4,94,88,72,30.21,30.08,11,2,12,0.00
2012-2-17,79.7,70.9,65.5,70.0,67.0,63.0,94,88,68,30.11,30.00,7,1,8,0.00
2012-2-18,74.3,70.8,66.5,70.1,67.8,65.3,97,91,84,30.05,29.91,5,1,9,0.00
2012-2-19,83.6,74.5,65.4,73.2,68.3,60.4,96,82,65,29.94,29.77,15,4,23,0.00
2012-2-20,68.6,62.9,57.3,60.3,56.9,54.4,92,81,68,30.22,29.93,14,5,15,0.00
2012-2-21,75.1,68.5,55.5,62.8,59.5,52.8,95,74,62,30.23,30.14,13,3,14,0.00
2012-2-22,79.9,69.2,62.0,68.7,63.5,58.4,91,82,60,30.14,29.93,12,2,14,0.00
2012-2-23,87.6,74.7,66.0,70.6,66.0,62.4,95,76,52,30.00,29.88,9,2,13,0.00
2012-2-24,88.8,75.9,66.7,71.2,66.2,62.7,97,75,46,30.03,29.91,10,2,18,0.00
2012-2-25,70.4,67.3,64.5,66.2,59.7,55.2,94,77,68,30.25,30.02,18,6,20,0.00
2012-2-26,71.8,69.0,67.3,68.6,63.2,58.0,94,82,71,30.32,30.23,13,7,17,0.00
2012-2-27,77.6,73.2,68.5,72.1,69.8,66.9,96,89,82,30.31,30.22,12,5,16,0.18
2012-2-28,75.6,71.7,66.9,72.6,69.3,65.7,98,92,84,30.30,30.21,8,2,11,0.01
2012-2-29,79.4,74.5,72.0,73.0,70.5,68.5,93,88,80,30.25,30.11,14,4,16,0.00
2012-3-1,84.5,74.7,69.7,73.2,70.4,67.6,94,87,63,30.14,29.99,14,2,16,0.00
2012-3-2,82.7,74.5,67.5,73.1,69.8,65.5,95,86,68,30.07,29.96,13,3,17,0.00
2012-3-3,87.4,77.6,69.2,73.3,68.3,64.0,95,75,47,29.98,29.80,18,3,22,0.00
2012-3-4,76.5,65.5,53.9,72.6,51.1,32.3,93,63,32,30.23,29.75,24,5,26,0.18
2012-3-5,68.2,61.1,50.4,54.0,43.0,35.0,70,52,37,30.39,30.23,10,3,14,0.00
2012-3-6,71.8,65.7,54.7,62.6,56.7,42.9,84,73,61,30.42,30.34,19,8,24,0.00
2012-3-7,75.1,71.1,69.0,67.8,63.8,58.6,91,78,66,30.40,30.31,19,9,24,0.07
2012-3-8,77.4,73.2,69.2,70.9,68.8,66.3,92,86,78,30.31,30.20,15,5,21,0.01
2012-3-9,79.6,73.7,68.2,72.8,69.9,66.9,96,88,78,30.23,30.09,14,3,16,0.24
2012-3-10,78.0,71.8,67.2,73.1,69.0,66.0,97,91,83,30.22,30.11,10,3,13,0.00
2012-3-11,73.0,70.9,68.2,69.6,67.7,65.7,97,90,83,30.32,30.19,21,9,23,0.70
2012-3-12,74.3,72.0,70.9,66.5,64.4,61.1,84,77,65,30.32,30.22,14,7,17,0.00
2012-3-13,77.4,73.0,71.0,65.5,63.2,60.7,78,72,65,30.27,30.19,9,4,11,0.00
2012-3-14,77.0,73.3,68.8,69.4,65.6,62.8,85,77,73,30.25,30.15,9,3,11,0.00
2012-3-15,76.0,73.1,68.3,69.9,67.7,65.3,93,84,76,30.26,30.16,14,5,17,0.70
2012-3-16,76.7,73.8,71.5,69.7,66.5,64.5,87,78,73,30.25,30.16,11,5,12,0.05
2012-3-17,77.1,73.9,71.6,66.8,64.8,63.2,80,74,64,30.25,30.16,9,4,13,0.00
2012-3-18,76.6,74.3,71.8,68.6,66.6,63.6,82,77,72,30.26,30.17,10,5,14,0.00
2012-3-19,78.1,74.2,72.4,66.4,64.3,62.0,79,71,61,30.20,30.10,9,5,12,0.00
2012-3-20,78.1,74.8,71.7,69.7,67.3,64.5,86,78,71,30.14,30.06,13,6,21,0.04
2012-3-21,78.1,75.1,71.8,71.2,69.7,67.3,89,84,76,30.18,30.07,22,7,23,0.02
2012-3-22,78.6,75.4,73.5,71.1,69.6,68.4,87,82,75,30.19,30.09,14,6,17,0.00
2012-3-23,79.5,74.8,70.2,69.5,67.6,65.6,87,79,65,30.15,30.04,15,5,18,0.00
2012-3-24,83.1,74.3,68.2,70.9,67.9,65.1,93,81,60,30.06,29.91,13,3,16,0.03
2012-3-25,81.9,72.9,67.4,72.4,66.5,54.2,95,82,49,29.97,29.78,13,3,21,0.59
2012-3-26,77.7,68.9,59.8,66.6,61.4,52.6,94,78,45,30.03,29.90,9,4,14,0.00
2012-3-27,77.7,74.1,70.2,68.9,66.5,64.9,88,78,71,30.20,30.01,11,4,13,0.00
2012-3-28,78.8,74.4,71.7,68.5,65.9,64.0,81,75,67,30.20,30.09,12,5,16,0.00
2012-3-29,81.0,72.7,65.2,68.0,65.7,62.7,92,79,59,30.11,29.99,10,3,12,0.00
2012-3-30,77.6,72.0,65.9,68.1,64.3,61.5,87,77,66,30.10,30.00,13,4,17,0.00
2012-3-31,86.6,73.6,66.7,69.5,65.2,62.1,88,76,52,30.04,29.82,11,2,22,0.00
2012-4-1,78.9,71.9,65.7,70.1,67.1,64.1,95,85,68,29.95,29.86,13,2,14,0.00
2012-4-2,79.1,72.7,66.3,72.0,68.5,64.6,96,87,73,29.94,29.85,7,1,9,0.00
2012-4-3,80.5,74.0,66.5,74.3,69.5,64.1,94,86,78,29.99,29.90,9,2,10,0.00
2012-4-4,88.9,77.1,68.4,75.2,68.8,62.8,87,77,43,29.99,29.79,14,3,21,0.00
2012-4-5,86.7,77.7,71.4,72.6,67.5,61.9,92,73,50,29.88,29.72,9,2,17,0.05
2012-4-6,87.6,77.2,69.8,70.5,65.8,60.3,95,71,42,29.95,29.71,17,6,25,0.00
2012-4-7,74.0,71.5,69.2,65.8,63.2,58.2,87,76,64,30.15,29.94,17,7,18,0.00
2012-4-8,75.8,72.0,69.7,61.6,59.0,56.7,70,64,55,30.19,30.11,11,3,13,0.00
2012-4-9,79.0,72.3,62.5,65.3,61.7,58.3,87,70,56,30.12,30.01,9,3,12,0.00
2012-4-10,81.9,73.7,65.0,68.2,63.5,60.5,89,71,54,30.10,29.98,14,3,16,0.00
2012-4-11,79.4,72.5,65.8,69.1,64.4,59.7,88,76,61,30.06,29.95,9,2,10,0.00
2012-4-12,80.0,73.1,63.8,69.2,65.9,60.8,92,79,65,30.08,29.96,14,5,18,0.00
2012-4-13,78.9,74.1,68.8,69.5,67.6,64.8,91,80,71,30.16,30.04,14,7,19,0.00
2012-4-14,74.9,72.5,68.0,67.8,64.9,62.6,93,77,71,30.27,30.13,17,7,24,0.10
2012-4-15,77.8,73.9,71.1,65.5,63.4,60.7,76,70,60,30.25,30.19,15,6,19,0.00
2012-4-16,76.2,73.5,72.9,66.3,64.6,59.5,79,74,57,30.22,30.14,11,2,16,0.00
2012-4-29,77.5,75.0,73.9,72.6,70.2,68.8,88,85,84,30.10,30.04,9,5,13,0.01
2012-4-30,77.5,75.8,74.0,72.5,70.8,68.5,89,85,80,30.11,30.04,11,6,14,0.00
2012-5-1,80.7,76.4,74.6,73.5,71.8,70.5,90,86,77,30.11,30.03,11,5,15,0.00
2012-5-2,81.0,77.1,74.2,73.2,71.9,71.0,90,84,75,30.12,30.03,9,4,13,0.00
2012-5-3,81.8,77.8,74.4,73.6,71.8,70.2,88,82,76,30.12,30.06,13,5,15,0.00
2012-5-4,82.9,77.5,74.9,72.3,70.4,69.4,87,79,67,30.11,30.01,12,4,16,0.00
2012-5-5,83.8,77.3,71.5,74.8,71.4,68.6,92,83,67,30.03,29.93,11,3,14,0.00
2012-5-6,90.9,79.2,70.8,76.0,72.0,67.8,93,80,47,29.98,29.86,13,3,16,0.00
2012-5-7,89.4,76.9,70.6,75.1,70.7,67.5,91,82,54,29.93,29.85,7,2,14,0.59
2012-5-8,87.8,76.3,70.3,75.3,70.1,67.4,92,82,54,29.93,29.85,15,2,18,0.00
2012-5-9,90.7,76.7,69.8,76.3,71.3,68.2,96,85,54,29.91,29.76,15,2,18,0.54
2012-5-10,79.9,76.2,70.7,74.2,71.6,69.4,97,86,78,29.91,29.78,10,4,14,0.01
2012-5-11,79.1,77.4,76.5,72.0,70.1,66.1,86,79,67,30.12,29.90,9,4,12,0.00
2012-5-12,78.1,76.8,75.6,70.9,68.8,65.2,83,76,70,30.20,30.09,14,8,18,0.00
2012-5-13,80.0,77.7,75.5,72.4,70.5,67.4,86,79,73,30.15,30.02,11,5,16,0.00
2012-5-14,82.9,78.2,75.3,76.0,73.5,71.1,90,86,79,30.08,29.94,9,3,11,0.00
2012-5-15,83.6,75.9,70.7,75.7,72.3,68.8,94,89,77,30.05,29.92,10,2,14,0.08
2012-5-16,83.0,75.9,70.6,74.5,71.8,69.3,97,88,73,30.03,29.92,9,1,11,0.01
2012-5-17,80.5,73.8,69.2,74.9,71.1,67.8,98,92,81,29.98,29.86,11,2,13,0.46
2012-5-18,79.9,75.4,69.5,73.6,71.1,68.0,96,87,77,29.95,29.87,8,2,11,0.00
2012-5-19,82.5,75.6,70.1,75.7,71.6,68.5,96,88,78,30.00,29.90,9,2,16,0.31
2012-5-20,81.6,77.1,70.7,74.8,72.0,67.5,97,85,75,29.99,29.91,11,4,13,0.00
2012-5-21,84.9,77.5,71.3,70.5,66.8,57.6,88,71,40,30.00,29.91,10,2,11,0.00
2012-5-22,84.5,77.5,69.9,77.8,72.0,67.7,93,83,74,29.97,29.88,16,2,26,0.39
2012-5-23,84.3,78.0,71.7,75.9,73.3,70.1,96,86,70,29.94,29.86,18,4,20,0.00
2012-5-24,82.8,78.5,73.7,77.1,74.4,71.0,92,88,81,29.91,29.85,9,3,14,0.00
2012-5-25,83.8,79.1,72.4,78.0,74.8,71.1,96,87,78,30.03,29.89,7,3,10,0.00
2012-5-26,84.6,79.6,73.5,77.6,74.6,72.1,96,85,74,30.05,29.95,8,2,11,0.00
2012-5-27,90.7,78.1,70.8,72.9,70.4,68.3,97,79,52,29.97,29.79,12,2,18,0.52
2012-5-28,87.5,78.2,73.0,77.8,74.2,70.8,96,88,67,29.96,29.86,17,3,22,0.32
2012-5-29,87.8,79.2,73.4,78.7,73.9,70.4,93,84,64,29.96,29.86,15,2,21,0.01
2012-5-30,92.7,79.9,72.1,77.9,73.8,69.9,96,83,55,29.92,29.76,11,2,23,0.01
2012-5-31,85.4,78.3,71.1,78.5,74.2,68.6,97,88,73,29.94,29.85,11,2,14,0.24
2012-6-1,81.9,76.3,71.2,76.6,73.5,69.9,98,92,78,29.97,29.85,11,2,15,2.60
2012-6-2,91.4,81.2,73.0,76.2,73.0,69.3,99,78,50,29.95,29.86,8,2,12,0.01
2012-6-3,84.8,79.2,71.7,72.6,70.4,65.1,94,76,53,30.04,29.93,9,3,11,0.00
2012-6-4,92.5,82.9,74.1,78.0,71.9,68.3,88,71,47,29.99,29.82,9,2,16,0.00
2012-6-5,87.9,80.9,76.2,78.2,74.6,72.5,95,82,62,29.89,29.79,10,2,17,0.05
2012-6-6,85.1,78.6,68.9,78.3,73.1,66.2,93,84,73,29.96,29.84,10,1,29,0.16
2012-6-7,84.6,79.3,73.3,79.7,76.3,71.5,97,91,82,29.98,29.89,7,1,15,1.13
2012-6-8,84.7,77.1,74.3,77.9,74.6,72.7,97,92,74,29.99,29.90,7,1,8,0.21
2012-6-9,85.7,78.5,72.6,79.0,75.1,71.5,98,90,79,30.04,29.94,13,2,16,0.10
2012-6-10,86.8,82.1,78.3,80.7,78.3,76.1,96,89,80,30.14,29.99,14,3,14,0.01
2012-6-11,84.0,81.0,78.5,76.5,74.1,71.0,91,80,70,30.14,30.05,8,3,9,0.01
2012-6-12,84.1,80.5,77.2,72.2,71.1,69.4,81,73,65,30.09,29.95,12,3,14,0.00
2012-6-13,88.4,79.4,73.6,76.7,72.7,69.4,90,80,62,29.98,29.86,14,2,15,0.01
2012-6-14,84.9,78.4,72.1,77.6,74.2,70.1,96,88,76,29.99,29.89,9,2,10,0.06
2012-6-15,83.8,79.4,73.7,77.0,74.6,71.1,98,86,70,30.02,29.92,12,4,15,0.01
2012-6-16,82.7,80.5,76.3,74.8,73.0,70.4,91,78,72,30.05,29.97,11,4,14,0.00
2012-6-17,82.8,80.2,77.6,72.3,70.8,69.0,81,73,67,30.06,29.95,12,3,12,0.01
2012-6-18,82.0,79.6,72.9,71.9,70.4,68.1,89,74,67,30.06,29.96,9,4,17,0.27
2012-6-19,82.2,80.1,78.4,73.8,71.3,68.5,82,75,66,30.07,30.00,12,6,15,0.00
2012-6-20,82.4,78.4,75.2,77.7,74.4,71.7,96,88,78,30.04,29.97,17,6,20,0.41
2012-6-21,83.7,80.8,77.6,78.1,76.3,74.2,91,86,82,30.01,29.88,12,4,16,0.00
2012-6-22,85.3,80.1,76.8,79.2,76.1,74.1,93,88,81,29.93,29.85,15,3,17,0.00
2012-6-23,82.6,79.1,75.2,78.3,75.8,72.2,96,90,79,29.99,29.87,18,4,21,0.02
2012-6-24,81.6,78.6,73.7,79.2,75.7,70.9,95,91,86,29.99,29.84,23,6,29,0.28
2012-6-25,82.9,80.5,78.0,79.0,76.2,74.9,95,87,79,29.84,29.72,11,2,16,0.20
2012-6-26,87.8,82.2,77.8,77.2,75.9,74.2,92,82,68,29.74,29.63,16,4,24,0.08
2012-6-27,89.1,80.0,75.1,77.2,74.9,71.7,95,85,64,29.99,29.67,15,5,23,0.06
2012-6-28,82.3,77.1,71.2,74.6,71.9,67.5,94,84,76,30.08,29.99,7,2,10,0.00
2012-6-29,85.3,78.5,71.0,78.3,74.1,69.2,96,87,78,30.06,29.93,7,1,8,0.01
2012-6-30,84.7,79.8,73.9,78.4,75.0,71.1,92,86,79,30.01,29.92,9,2,12,0.00
2012-7-1,86.1,80.3,74.4,78.6,75.4,71.2,92,85,70,30.08,29.97,8,1,10,0.00
2012-7-2,86.5,81.7,76.8,80.5,76.6,72.6,93,85,69,30.10,29.98,9,1,12,0.00
2012-7-3,88.6,80.8,74.8,78.9,75.5,71.9,93,84,62,30.08,29.99,7,1,10,0.00
2012-7-4,87.3,81.8,77.4,80.7,77.4,74.4,92,87,78,30.07,30.01,9,2,11,0.00
2012-7-5,87.1,81.7,75.1,80.3,76.5,71.3,90,85,76,30.06,29.86,9,2,10,0.00
2012-7-6,87.5,81.7,77.4,80.0,77.1,73.5,93,86,77,30.05,29.92,8,1,10,0.00
2012-7-7,87.8,82.1,75.9,80.4,77.4,73.7,94,86,74,30.08,30.03,7,2,9,0.00
2012-7-8,86.7,82.4,77.0,80.5,78.2,75.2,95,88,79,30.09,30.00,8,2,12,0.00
2012-7-9,86.8,82.2,76.5,79.6,76.8,73.6,92,84,75,30.05,29.96,9,2,13,0.00
2012-7-10,88.5,82.8,77.4,80.1,77.5,74.9,94,84,72,30.04,29.95,10,2,13,0.00
2012-7-11,86.4,79.3,75.3,79.8,75.1,72.9,94,87,77,30.06,29.90,12,2,16,0.15
2012-7-12,85.8,78.9,73.1,79.1,74.8,70.7,96,88,77,30.03,29.96,9,2,15,0.01
2012-7-13,86.5,81.8,77.2,79.5,76.9,74.2,93,86,76,30.08,29.99,12,2,15,0.01
2012-7-14,86.1,82.4,78.2,78.8,76.8,75.2,91,83,77,30.10,30.00,8,4,10,0.01
2012-7-15,87.2,80.2,73.3,79.1,75.1,71.4,94,85,76,30.12,30.02,22,2,26,0.08
2012-7-16,80.9,75.5,72.6,76.7,73.3,70.8,96,93,83,30.07,29.96,9,1,12,0.03
2012-7-17,87.3,76.6,72.6,78.2,73.8,71.0,96,92,72,30.03,29.96,10,2,15,0.05
2012-7-18,86.3,79.9,74.5,80.9,76.3,72.5,96,89,81,30.12,29.98,10,2,12,0.01
2012-7-19,86.7,81.8,78.2,81.2,78.2,75.9,95,89,82,30.17,30.08,8,2,11,0.01
2012-7-20,87.3,81.6,76.4,81.0,77.9,74.7,96,89,81,30.12,30.04,7,1,9,0.00
2012-7-21,86.6,81.3,77.2,80.2,77.8,75.6,96,90,80,30.11,30.03,7,1,7,0.00
2012-7-22,84.3,77.5,73.7,79.7,75.4,72.1,97,94,85,30.17,30.05,14,2,27,0.01
2012-7-23,81.6,76.6,71.9,77.1,74.1,70.3,98,92,83,30.18,30.10,10,1,18,0.03
2012-7-24,81.8,77.1,74.4,79.6,75.7,72.8,98,96,90,30.14,30.09,4,0,6,0.00
2012-7-29,87.0,83.8,79.8,80.0,77.4,75.1,87,81,76,30.07,29.97,9,2,10,0.00
2012-7-30,87.0,82.2,76.2,79.6,76.2,72.5,92,82,73,30.04,29.96,8,1,12,0.00
2012-7-31,89.1,80.0,74.4,80.1,75.6,72.1,95,87,70,30.03,29.94,10,1,12,0.22
2012-8-1,92.5,80.8,75.4,80.2,75.8,72.9,93,85,62,30.00,29.91,10,1,10,0.28
2012-8-2,86.8,81.9,76.4,81.3,77.4,73.7,93,87,78,29.99,29.90,7,1,8,0.00
2012-8-3,84.6,80.2,78.3,79.6,76.6,74.7,94,89,83,30.02,29.89,8,1,10,0.00
2012-8-4,85.0,80.7,77.8,80.2,77.6,76.1,96,90,80,30.01,29.93,10,2,10,0.00
2012-8-14,85.2,80.3,74.4,80.7,77.2,71.2,96,91,82,30.04,29.95,15,1,19,0.14
2012-8-15,89.2,82.0,74.6,81.9,78.3,73.0,96,89,73,30.04,29.96,9,1,9,0.00
2012-8-16,88.2,82.0,77.8,82.5,77.9,74.7,95,88,76,30.06,29.97,9,1,10,0.11
2012-8-17,90.0,79.1,73.9,81.7,76.2,72.0,96,91,72,30.05,29.92,12,1,16,0.54
2012-8-18,91.5,78.3,73.1,80.3,75.3,70.0,97,91,65,29.98,29.89,18,1,24,0.71
2012-8-19,93.8,81.5,75.9,80.0,76.2,72.5,96,85,58,29.99,29.88,11,2,13,0.07
2012-8-20,89.3,80.7,76.4,80.8,76.9,72.7,96,89,73,29.99,29.87,16,2,18,0.05
2012-8-21,88.0,78.4,72.2,81.8,75.4,69.5,97,91,76,30.08,29.95,18,2,22,1.14
2012-8-22,85.9,77.0,72.6,80.7,74.2,70.6,98,92,78,30.08,30.00,14,1,16,0.19
2012-8-23,85.2,78.8,73.4,80.2,76.1,70.7,96,92,78,30.08,30.01,8,1,8,0.00
2012-8-24,84.8,79.9,74.4,79.8,77.1,70.0,96,91,82,30.05,29.94,10,3,13,0.45
2012-8-25,81.2,77.0,69.8,78.5,74.4,68.3,97,92,86,30.06,29.92,24,8,25,0.95
2012-8-26,81.6,79.4,74.9,78.3,76.8,70.4,96,92,83,29.97,29.81,33,12,33,0.89
2012-8-27,81.9,77.9,73.8,78.7,76.3,72.7,98,95,86,29.93,29.79,33,7,34,4.70
2012-8-28,89.2,80.4,77.1,81.9,77.5,74.3,96,91,78,30.00,29.90,15,2,21,0.01
2012-8-29,85.5,81.2,77.1,80.9,78.3,75.5,97,91,83,29.99,29.92,9,2,10,0.01
2012-8-30,88.0,82.2,78.2,81.6,78.8,76.8,96,90,74,30.10,29.94,8,2,9,0.00
2012-8-31,85.3,82.2,79.4,81.7,79.5,77.9,97,92,85,30.16,30.06,11,3,11,0.00
2012-9-1,85.7,82.8,81.0,79.3,77.6,72.5,91,85,74,30.13,30.03,14,5,15,0.00
2012-9-2,84.8,81.8,78.6,74.6,72.5,68.5,80,74,66,30.06,29.97,11,4,12,0.00
2012-9-3,87.5,80.5,73.3,76.9,73.6,71.2,94,80,64,30.04,29.96,8,2,8,0.00
2012-9-4,85.9,79.5,74.0,78.9,74.8,69.8,92,86,75,30.03,29.93,14,2,15,0.13
2012-9-5,89.3,77.9,71.6,79.0,73.5,68.7,96,87,68,29.99,29.91,19,2,19,0.43
2012-9-6,86.6,76.9,71.9,79.9,73.9,70.5,97,91,79,30.02,29.93,11,1,17,0.69
2012-9-7,89.2,78.4,71.8,80.5,74.7,70.8,98,89,71,29.99,29.89,9,2,12,0.03
2012-9-8,92.7,81.8,73.8,79.4,75.5,72.2,96,82,57,29.95,29.85,10,1,12,0.00
2012-9-9,90.9,82.6,76.4,78.7,76.0,73.9,95,81,62,29.94,29.84,17,3,19,0.00
2012-9-10,86.3,79.1,74.2,79.3,76.1,71.7,96,91,77,29.99,29.89,8,1,9,0.11
2012-9-11,83.8,79.6,74.6,78.1,75.9,73.4,98,89,78,30.08,29.96,27,6,27,1.31
2012-9-12,83.3,81.2,78.3,77.6,75.7,73.8,91,84,80,30.09,30.01,24,8,25,0.12
2012-9-13,82.0,81.3,80.6,76.5,75.4,73.7,86,83,78,30.05,30.00,16,9,18,0.00
2012-9-14,84.8,80.9,76.9,79.6,76.6,74.3,95,87,81,30.03,29.97,14,5,15,0.06
2012-9-15,83.7,80.1,75.3,77.6,75.4,72.9,95,86,79,30.05,29.98,19,5,20,0.08
2012-9-16,84.3,79.7,74.0,77.0,75.3,72.2,96,87,77,30.04,29.96,15,3,16,1.46
2012-9-17,85.1,81.7,78.8,78.3,76.2,73.9,91,84,77,30.01,29.91,11,4,12,0.01
2012-9-18,90.3,78.7,73.0,79.0,74.9,71.2,97,89,68,29.96,29.88,15,1,18,0.43
2012-9-19,88.9,78.2,72.9,77.9,74.5,71.9,98,89,61,30.03,29.90,12,2,14,0.55
2012-9-20,84.3,78.2,71.9,78.4,75.0,70.7,97,90,80,30.02,29.92,8,1,9,0.02
2012-9-21,85.3,78.3,73.4,81.1,75.8,71.5,97,92,82,30.00,29.90,21,3,23,0.60
2012-9-22,82.8,78.3,75.2,76.8,74.8,72.8,96,89,79,30.01,29.92,12,2,13,0.05
2012-9-23,84.0,79.0,73.2,77.5,74.6,72.5,98,87,74,30.04,29.97,9,2,10,0.01
2012-9-24,83.0,78.3,74.0,74.5,72.6,68.5,96,83,71,30.06,29.98,14,3,15,0.01
2012-9-25,83.5,79.7,73.3,73.5,71.4,68.7,88,76,69,30.07,29.98,10,3,11,0.00
2012-9-26,83.7,80.1,74.6,79.0,76.3,71.7,95,88,82,30.08,30.00,9,3,9,0.00
2012-9-27,84.9,81.3,77.6,80.0,77.6,74.7,96,89,83,30.08,29.99,18,3,20,0.00
2012-9-28,85.5,81.6,78.1,78.7,76.6,74.5,91,85,79,30.03,29.92,15,4,15,0.00
2012-9-29,85.3,80.4,75.8,78.8,75.9,73.0,96,86,77,29.96,29.84,8,1,8,0.00
2012-9-30,86.8,81.3,76.4,79.3,76.8,74.0,95,87,77,29.88,29.76,11,2,11,0.00
2012-10-1,86.5,81.1,76.4,80.2,76.5,74.2,94,87,78,29.83,29.72,13,2,13,0.18
2012-10-2,86.8,78.0,75.1,78.6,75.2,73.2,97,91,73,30.03,29.81,16,2,18,0.33
2012-10-3,86.8,80.7,75.5,81.3,77.9,74.5,98,92,81,30.15,30.02,11,2,11,0.01
2012-10-4,87.2,82.8,79.0,81.2,79.1,75.6,95,89,80,30.15,30.06,9,2,9,0.00
2012-10-5,86.9,82.3,78.3,80.9,78.2,74.9,93,88,80,30.10,29.93,11,3,12,0.03
2012-10-6,85.5,79.3,73.5,80.2,76.2,71.9,97,91,82,29.95,29.84,13,3,15,1.17
2012-10-7,83.1,77.5,71.5,79.2,74.8,70.5,98,92,83,29.96,29.88,18,2,23,0.00
2012-10-8,83.8,80.0,74.7,77.9,76.3,72.6,95,89,80,30.01,29.89,11,2,11,0.07
2012-10-9,84.4,79.6,74.2,79.5,76.5,73.2,98,90,80,30.02,29.93,14,3,15,0.01
2012-10-10,84.3,80.1,77.0,77.8,74.7,68.8,93,84,74,30.06,29.97,14,5,15,0.00
2012-10-11,81.8,79.1,76.6,72.8,70.2,65.1,79,74,67,30.12,30.03,19,8,19,0.00
2012-10-12,81.0,79.0,77.8,71.1,69.2,66.9,78,72,65,30.13,30.04,20,9,21,0.00
2012-10-13,81.3,79.4,76.9,73.8,71.0,67.8,87,76,69,30.13,30.04,23,12,24,0.06
2012-10-14,82.5,80.3,75.8,76.9,74.4,70.3,95,83,75,30.07,29.94,22,8,22,0.58
2012-10-15,84.5,81.0,75.8,77.0,75.4,73.2,96,83,76,29.94,29.78,14,4,15,0.03
2012-10-16,82.8,77.7,71.1,76.4,72.8,69.7,96,86,76,29.84,29.76,10,3,11,0.00
2012-10-17,84.5,77.2,72.0,76.5,72.4,67.6,94,86,74,29.87,29.79,14,2,15,0.22
2012-10-18,81.6,76.2,71.4,78.0,73.9,69.8,96,93,86,29.87,29.79,8,1,10,1.17
2012-10-19,86.5,78.5,70.9,78.5,74.7,69.5,97,89,71,29.86,29.77,8,1,9,0.02
2012-10-20,78.8,75.3,71.5,73.1,67.4,62.0,96,78,60,29.92,29.80,11,2,14,0.00
2012-10-21,80.5,74.8,64.8,68.6,64.7,61.6,92,72,57,30.00,29.90,15,4,16,0.00
2012-10-22,80.7,78.7,77.4,70.6,68.3,65.1,75,71,65,30.04,29.95,19,8,20,0.00
2012-10-23,79.5,77.9,73.7,72.9,70.6,66.3,92,79,68,30.00,29.93,19,8,20,0.30
2012-10-24,81.5,79.1,75.4,74.5,72.7,70.9,92,81,74,29.97,29.86,21,8,22,0.16
2012-10-25,80.2,78.1,74.0,75.1,73.7,70.6,96,87,78,29.86,29.69,30,11,34,0.67
2012-10-26,78.4,75.1,70.7,73.0,70.4,66.0,93,85,77,29.72,29.46,38,14,43,0.98
2012-10-27,73.2,70.4,68.3,68.8,65.0,62.4,95,83,76,29.62,29.39,24,5,26,0.17
2012-10-28,77.6,69.8,62.7,66.7,62.5,56.6,92,78,59,29.74,29.61,17,3,17,0.00
2012-10-29,69.3,60.9,54.2,56.6,47.8,34.8,87,65,29,29.81,29.69,19,3,19,0.00
2012-10-30,69.5,58.2,48.2,49.4,44.5,37.7,81,62,38,29.94,29.79,17,3,20,0.00
2012-10-31,71.7,60.9,51.1,53.8,50.4,43.3,93,71,46,30.04,29.93,14,2,18,0.00
2012-11-1,77.6,67.0,56.9,65.0,59.4,52.9,91,78,59,30.02,29.91,12,2,13,0.00
2012-11-2,73.2,65.7,56.8,61.5,56.8,52.0,96,75,49,30.07,29.98,8,2,9,0.00
2012-11-3,76.5,66.9,55.5,68.0,60.1,51.8,93,80,64,30.11,30.03,8,2,9,0.00
2012-11-4,80.7,70.5,61.2,68.3,64.0,59.1,95,81,60,30.10,29.97,8,2,8,0.00
2012-11-5,78.8,70.8,64.4,69.0,65.5,62.0,94,84,62,29.99,29.89,7,1,8,0.00
2012-11-6,78.8,70.6,64.4,66.3,63.8,60.5,93,80,58,29.91,29.78,10,1,12,0.00
2012-11-7,68.4,61.3,54.0,61.9,53.1,47.3,94,76,53,29.96,29.80,17,-1,17,0.01
2012-11-8,65.4,58.4,51.7,54.2,49.3,44.2,84,72,49,30.12,29.94,14,4,17,0.00
2012-11-9,70.8,65.6,57.5,61.6,56.4,49.5,79,72,62,30.21,30.10,15,5,18,0.00
2012-11-10,73.5,71.2,69.8,63.0,59.4,56.1,73,66,61,30.27,30.17,14,6,16,0.00
2012-11-11,75.8,73.8,71.9,67.8,65.1,58.4,81,75,61,30.26,30.18,17,7,21,0.00
2012-11-12,76.3,74.3,71.8,70.7,68.8,64.9,90,83,78,30.21,30.13,16,6,21,0.06
2012-11-13,77.4,74.2,70.1,72.3,69.4,66.3,90,85,79,30.14,30.06,15,3,17,0.19
2012-11-14,78.0,73.8,67.9,71.6,68.5,66.0,95,84,75,30.13,30.05,11,2,11,0.04
2012-11-15,72.0,67.3,62.5,69.8,65.4,60.8,98,94,90,30.10,30.02,13,2,18,0.01
2012-11-16,72.4,66.3,60.9,67.1,63.7,59.7,97,92,83,30.09,30.02,19,4,19,0.58
2012-11-17,75.8,71.0,65.4,69.4,66.7,63.6,97,87,78,30.10,30.03,18,6,19,0.19
2012-11-18,73.0,69.5,64.4,67.9,65.1,59.7,94,86,81,30.13,30.03,20,8,23,0.00
2012-11-19,65.5,60.0,56.8,60.8,57.5,54.8,95,92,84,30.11,30.00,12,3,14,0.00
2012-11-20,70.3,63.7,58.2,65.3,60.6,56.7,95,90,80,30.01,29.92,18,4,21,0.00
2012-11-21,68.5,61.0,57.8,62.4,57.0,50.8,95,87,74,30.01,29.93,17,4,20,0.00
2012-11-22,68.1,60.6,55.1,57.2,52.3,48.3,84,75,60,30.11,29.98,21,5,23,0.00
2012-11-23,70.8,61.7,53.1,60.4,53.4,47.9,83,75,62,30.14,30.04,14,4,17,0.00
2012-11-24,73.3,60.9,50.9,62.2,55.7,47.1,93,84,58,30.08,29.96,11,2,11,0.00
2012-11-25,68.3,61.0,51.0,60.0,55.8,48.0,93,84,72,30.12,30.03,9,2,10,0.00
2012-11-26,72.8,67.0,59.5,68.3,63.7,57.8,95,90,83,30.20,30.10,7,2,9,0.00
2012-11-27,76.9,70.9,66.5,69.9,66.1,63.1,91,85,78,30.18,30.07,7,1,8,0.00
2012-11-28,70.5,66.1,61.8,67.0,63.2,60.0,95,91,85,30.19,30.07,18,4,18,0.00
2012-11-29,72.1,69.3,60.9,65.9,63.7,59.4,97,83,77,30.23,30.15,17,6,18,0.00
2012-11-30,73.1,70.6,69.2,65.2,63.4,60.9,85,78,74,30.23,30.14,14,5,14,0.00
2012-12-1,74.3,71.2,68.8,66.9,65.1,62.9,91,81,74,30.20,30.12,17,5,22,0.10
2012-12-2,75.5,71.3,66.3,69.8,66.3,64.5,97,85,75,30.23,30.16,14,4,16,0.07
2012-12-3,75.5,73.4,72.0,66.8,63.9,60.4,82,72,65,30.25,30.16,13,5,15,0.00
2012-12-4,74.8,72.7,70.4,67.1,62.5,57.2,85,71,61,30.24,30.14,14,5,14,0.00
2012-12-5,77.0,72.1,66.7,68.4,64.5,59.8,91,78,62,30.14,30.01,9,2,10,0.00
2012-12-6,74.9,70.4,66.2,70.4,66.9,62.4,96,89,78,30.01,29.90,11,2,13,0.31
2012-12-7,76.7,71.0,64.1,72.1,68.2,62.9,97,91,80,29.99,29.88,13,2,14,0.01
2012-12-8,75.5,72.4,67.8,72.8,69.9,65.9,97,92,86,30.05,29.94,10,2,13,1.17
2012-12-9,77.1,73.2,68.5,74.0,71.2,67.3,98,94,89,30.07,29.98,10,1,12,0.18
2012-12-10,81.2,74.6,70.6,77.8,73.0,69.2,98,95,87,29.99,29.84,11,2,11,0.54
2012-12-11,78.8,74.8,72.5,75.9,73.2,70.8,97,95,90,30.01,29.87,8,1,11,0.01
2012-12-12,80.8,74.9,70.2,76.0,72.2,69.2,98,92,80,30.07,29.98,7,1,10,0.10
2012-12-13,73.4,68.9,65.8,72.0,66.6,62.8,97,92,88,30.10,29.99,17,4,20,0.03
2012-12-14,74.3,69.3,62.6,67.8,65.0,61.1,97,87,73,30.14,30.05,17,5,19,0.08
2012-12-15,76.3,69.1,62.4,69.5,65.5,61.7,99,89,74,30.11,30.03,12,2,13,0.01
2012-12-16,76.8,72.7,67.7,71.3,68.7,64.7,94,88,82,30.04,29.94,11,3,12,0.00
2012-12-17,80.2,73.2,67.7,71.1,68.2,65.9,96,85,68,29.96,29.85,8,1,11,0.00
2012-12-18,81.7,71.7,63.9,73.2,66.7,56.8,98,85,69,29.99,29.86,12,2,12,0.01
2012-12-19,77.8,68.8,56.6,67.2,60.6,52.9,94,76,60,30.08,29.98,9,2,11,0.00
2012-12-20,78.6,73.4,68.7,70.0,66.2,61.9,88,79,64,30.09,29.93,12,3,12,0.00
2012-12-21,71.1,59.9,46.1,68.3,45.2,27.9,93,62,27,30.15,29.89,18,3,19,0.01
2012-12-22,63.9,51.1,40.9,37.7,29.2,21.3,74,45,21,30.23,30.14,14,3,16,0.00
2012-12-23,67.2,57.0,44.9,58.7,46.7,32.0,87,69,53,30.24,30.13,7,2,8,0.00
2012-12-24,72.6,64.9,57.5,62.6,58.4,52.6,89,80,69,30.13,29.96,8,1,9,0.00
2012-12-25,73.4,66.5,58.2,66.1,61.7,56.3,94,85,75,30.03,29.89,6,1,6,0.00
2012-12-26,81.3,69.6,57.1,71.3,64.4,52.9,93,84,65,29.96,29.75,24,3,24,0.06
2012-12-27,60.0,54.0,45.8,53.2,48.3,42.4,91,82,69,30.06,29.95,12,2,12,0.00
2012-12-28,74.0,64.1,49.7,69.5,59.1,44.9,95,84,69,30.08,29.95,10,3,10,0.10
2012-12-29,81.3,71.5,54.7,74.8,67.4,48.8,97,88,74,30.09,29.86,15,3,19,0.01
2012-12-30,65.2,55.9,43.9,57.7,50.0,38.8,87,81,73,30.29,30.09,19,6,21,0.00
2012-12-31,72.0,67.6,63.0,61.7,59.1,55.6,84,74,68,30.32,30.19,13,5,15,0.00
2013-1-1,75.2,67.9,61.9,67.6,62.9,58.1,91,84,77,30.20,30.03,8,1,9,0.00